This is the latest recevied weather packets stored in our database for station/object KY0TEQ-13. If no packets are shown the sender has not sent any weather packets the latest 10 day(s).
| Time | Temp. | Humidity | Pressure | Rain* | Wind** | Luminosity | Snow |
|---|---|---|---|---|---|---|---|
| 1788130407 | 25° C | 37% | 1306.9 hPa | 0 mm | - | 109 W/m² | - |
| 1788130107 | 25° C | 35% | 1306.9 hPa | 0 mm | - | 145 W/m² | - |
| 1788129801 | 25° C | 35% | 1306.9 hPa | 0 mm | - | 100 W/m² | - |
| 1788129498 | 25.56° C | 34% | 1307.2 hPa | 0 mm | - | 113 W/m² | - |
| 1788129194 | 26.11° C | 33% | 1306.8 hPa | 0 mm | - | 163 W/m² | - |
| 1788128887 | 25° C | 35% | 1307.1 hPa | 0 mm | - | 266 W/m² | - |
| 1788128583 | 25.56° C | 34% | 1307.2 hPa | 0 mm | - | 146 W/m² | - |
| 1788128278 | 26.11° C | 34% | 1307.4 hPa | 0 mm | - | 159 W/m² | - |
| 1788127976 | 26.67° C | 33% | 1307.4 hPa | 0 mm | - | 474 W/m² | - |
| 1788127675 | 25.56° C | 35% | 1307.4 hPa | 0 mm | - | 625 W/m² | - |
| 1788127375 | 26.11° C | 34% | 1307.3 hPa | 0 mm | - | 294 W/m² | - |
| 1788127073 | 26.67° C | 33% | 1307.6 hPa | 0 mm | - | 652 W/m² | - |
| 1788126768 | 25.56° C | 34% | 1307.6 hPa | 0 mm | - | 378 W/m² | - |
| 1788126463 | 25.56° C | 33% | 1307.8 hPa | 0 mm | - | 165 W/m² | - |
| 1788126163 | 25° C | 35% | 1307.8 hPa | 0 mm | - | 173 W/m² | - |
| 1788125862 | 25.56° C | 34% | 1307.9 hPa | 0 mm | - | 174 W/m² | - |
| 1788125557 | 25.56° C | 33% | 1307.9 hPa | 0 mm | - | 158 W/m² | - |
| 1788125253 | 27.22° C | 32% | 1307.7 hPa | 0 mm | - | 312 W/m² | - |
| 1788124949 | 26.67° C | 34% | 1307.8 hPa | 0 mm | - | 716 W/m² | - |
| 1788124648 | 26.11° C | 33% | 1307.7 hPa | 0 mm | - | 764 W/m² | - |
| 1788124347 | 26.67° C | 32% | 1308.2 hPa | 0 mm | - | 266 W/m² | - |
| 1788124048 | 26.11° C | 33% | 1308.2 hPa | 0 mm | - | 372 W/m² | - |
| 1788123743 | 26.11° C | 33% | 1308.2 hPa | 0 mm | - | 661 W/m² | - |
| 1788123440 | 25.56° C | 35% | 1308.2 hPa | 0 mm | - | 753 W/m² | - |
| 1788123135 | 25.56° C | 34% | 1308 hPa | 0 mm | - | 616 W/m² | - |
* Rain latest hour (hover to see other rain measurements)
** Current wind speed in m/s (hover to see current wind gust speed)